Theta_e
311 311 312 311 311 311 311 311 311 311 311 311 312 312 312 312 312 313 313 314 315 316 315 315 316 315 315 307 304 313 315 319 316 311 307 305 307 306 303 305 308 307 310 313 315 315 316
311 311 311 311 311 311 311 311 311 311 311 311 311 311 311 312 312 312 313 314 315 314 315 316 317 315 313 301 311 313 313 313 312 311 309 307 304 307 306 306 305 308 309 310 313 314 315
311 311 311 310 310 310 310 310 311 311 311 311 311 311 311 311 311 312 314 314 314 314 315 317 316 315 310 303 312 314 314 311 312 310 307 310 308 304 306 304 309 307 303 306 308 311 311
310 310 310 310 310 310 310 310 310 310 310 310 311 311 310 311 311 312 312 313 313 314 317 318 315 316 305 311 314 311 312 310 312 312 310 311 310 306 303 304 303 301 303 298 305 308 310
310 310 310 310 310 310 310 310 310 310 311 310 311 311 310 310 311 311 312 312 314 316 316 316 315 311 303 311 307 309 310 307 308 310 310 310 308 303 303 297 295 297 295 298 301 307 307
310 310 310 310 310 311 311 310 311 311 311 311 311 311 310 310 311 311 311 311 316 316 317 317 313 306 307 301 306 308 311 308 305 306 305 304 304 299 299 296 289 292 294 297 298 304 306
311 311 311 311 312 311 311 312 311 311 311 311 311 311 310 310 310 311 311 315 310 309 309 302 302 301 302 307 309 306 307 305 306 303 298 302 297 295 297 299 298 297 295 294 299 304 303
311 311 312 312 312 311 311 311 311 311 311 311 310 309 310 309 310 310 312 307 306 308 299 306 304 303 305 306 300 304 307 300 300 296 299 297 294 298 299 298 296 295 293 294 298 301 302
312 312 312 311 311 311 311 311 311 311 311 311 310 309 309 310 310 311 310 308 313 312 301 301 303 302 302 304 300 301 304 301 298 295 295 293 295 299 297 295 294 294 292 293 294 298 301
311 312 311 311 311 311 310 310 310 310 310 310 310 310 310 309 307 313 310 312 314 312 296 296 298 301 303 303 299 304 305 301 298 294 295 295 298 295 295 293 295 290 296 295 294 292 289
311 311 311 311 310 309 309 310 310 310 310 310 310 310 309 306 313 310 311 315 314 310 287 296 298 306 303 299 300 300 305 302 295 295 295 293 294 293 293 294 296 293 297 295 294 292 292
311 311 311 311 311 310 310 310 310 310 309 309 310 309 308 309 314 313 315 315 310 295 285 292 297 297 297 300 299 301 300 304 302 296 297 296 300 298 295 297 297 299 295 295 294 292 285
310 310 311 311 311 311 310 309 310 310 309 309 310 308 308 314 311 315 315 309 294 289 296 292 293 297 296 296 296 296 296 295 293 289 289 293 294 296 299 294 298 296 293 284 282 283 283
310 311 311 311 311 311 311 310 310 309 309 309 308 306 311 315 317 315 312 301 289 292 292 297 296 296 294 295 295 295 295 293 296 294 291 287 285 293 297 294 293 293 290 285 277 280 285
310 311 311 311 310 311 311 310 309 309 308 307 306 315 315 317 317 314 304 293 293 293 295 294 295 293 292 294 295 294 294 293 294 296 289 287 287 296 297 298 296 293 290 295 287 288 284
310 310 310 310 310 310 310 310 310 309 308 307 309 311 312 315 318 310 300 293 294 296 297 296 290 293 290 292 292 293 292 295 293 296 298 293 286 294 295 299 299 295 298 287 288 279 278
311 309 309 310 310 310 310 311 310 309 307 306 309 304 311 314 313 304 295 294 295 298 298 294 293 292 292 291 293 292 291 294 296 296 297 295 291 290 294 293 292 291 291 290 291 288 281
310 310 309 310 310 310 310 310 310 309 306 306 307 300 311 309 300 301 295 294 294 296 299 297 297 295 292 293 291 292 290 293 298 298 292 296 292 287 289 295 297 296 294 292 285 284 288
310 309 310 310 310 310 310 310 310 308 306 305 302 302 311 309 295 296 297 295 296 296 297 295 294 296 296 292 289 293 294 297 298 296 293 296 291 284 287 290 294 291 294 294 293 292 287
310 309 310 310 311 310 309 309 309 308 306 306 302 297 303 306 303 295 295 294 293 297 296 297 296 297 295 292 295 292 292 296 298 297 299 297 292 286 284 286 288 287 292 293 291 284 288
310 310 310 310 310 310 308 308 308 308 306 307 304 300 300 295 296 297 298 297 292 292 297 298 295 294 293 289 291 291 293 295 297 299 297 295 289 291 292 291 291 291 291 291 291 292 288
309 309 310 310 310 308 308 307 307 307 305 304 298 297 299 296 298 296 295 294 292 293 294 293 294 295 295 289 290 289 292 293 292 298 296 298 288 291 288 292 292 289 292 292 292 292 291
309 309 309 309 307 306 306 307 307 306 305 300 300 301 297 294 296 295 295 295 294 295 295 296 295 295 294 295 297 297 299 299 297 294 294 291 291 289 284 289 289 285 290 292 293 294 293
309 309 308 308 306 304 304 305 305 305 305 303 302 303 293 292 294 294 294 295 293 293 292 297 298 297 300 303 303 303 302 301 300 298 298 290 289 289 286 287 279 291 297 295 294 295 297
308 307 307 305 303 303 303 304 305 305 306 304 306 302 295 289 293 294 295 294 295 297 295 296 298 302 304 301 295 294 295 292 297 299 297 297 289 286 285 284 288 291 292 292 291 291 298
307 305 304 303 303 303 303 303 303 304 305 305 305 308 301 290 295 296 294 295 291 291 295 297 302 305 304 297 294 289 287 290 290 292 300 296 292 287 287 281 279 289 295 297 296 286 295
304 303 302 302 302 302 302 302 303 303 303 304 303 310 301 293 298 297 292 291 294 293 290 296 296 298 302 294 291 288 289 293 288 288 289 291 291 285 285 284 288 293 296 296 285 289 296
303 302 301 301 301 301 301 302 302 302 303 303 302 306 301 295 298 300 301 295 294 294 289 295 294 296 296 291 291 291 290 292 291 292 291 289 287 287 288 285 282 298 294 287 294 296 296
302 301 300 300 300 300 301 301 301 301 302 303 299 305 310 299 298 304 303 303 300 299 296 295 294 293 296 294 293 294 291 294 292 286 297 289 293 289 289 290 299 300 297 298 299 297 297
Wind_Speed
15 15 15 16 16 16 16 17 17 17 17 17 18 18 18 18 18 18 18 18 18 17 18 16 14 12 13 8 10 10 7 11 14 8 8 12 14 15 25 25 26 33 31 29 28 26 24
15 15 16 16 16 16 16 17 17 18 18 18 18 18 19 19 18 18 17 16 16 16 16 15 13 12 11 4 4 4 6 8 6 10 10 8 12 15 22 24 28 28 29 32 29 29 28
15 16 16 16 16 17 17 18 18 18 18 18 18 19 19 19 19 20 19 17 15 15 14 12 9 11 12 9 3 5 7 6 4 7 9 12 10 16 12 17 25 26 30 28 29 30 33
15 15 16 16 17 18 19 19 19 19 19 19 18 18 19 19 19 19 20 19 19 15 11 8 7 12 6 3 7 6 9 8 2 6 10 11 12 17 21 21 26 23 22 27 33 29 29
15 16 16 17 17 18 18 19 20 21 21 21 19 19 20 20 20 20 20 21 17 5 4 6 9 8 3 7 5 12 10 9 11 11 5 8 14 15 15 18 19 22 25 30 31 30 29
17 17 18 18 19 19 20 20 20 21 21 22 21 20 20 21 22 21 22 22 4 7 9 10 8 9 6 7 11 12 6 10 13 13 14 15 13 14 14 14 21 22 28 30 30 28 28
17 17 18 19 20 20 20 21 22 22 23 24 24 22 20 20 21 20 18 7 8 9 11 11 10 8 7 9 9 6 4 9 10 12 15 9 14 14 17 16 20 23 27 33 30 24 29
17 18 18 19 20 20 19 20 21 22 22 24 25 25 23 21 20 21 13 6 7 7 10 12 9 8 6 6 9 9 5 14 10 14 17 15 16 16 18 16 18 22 26 29 28 30 27
17 18 19 20 21 19 21 20 20 20 21 22 23 23 22 19 17 12 6 6 7 7 9 1 7 7 6 5 11 14 8 11 13 17 16 16 19 18 17 16 19 19 21 24 29 25 26
17 17 18 17 17 18 21 22 23 23 22 22 22 22 19 16 8 3 2 5 8 4 8 10 7 3 7 8 16 3 7 8 14 18 18 17 18 21 16 19 19 21 20 23 22 24 22
16 17 18 17 18 21 20 21 22 23 23 24 23 23 16 7 11 4 7 8 7 6 6 5 4 6 8 9 10 3 3 13 17 19 17 18 20 20 20 21 19 21 19 22 24 24 27
16 17 18 18 18 19 20 20 22 22 24 25 24 21 10 7 8 6 6 5 6 9 2 3 2 6 10 12 5 9 11 14 18 19 17 20 15 20 15 23 19 22 21 26 25 21 23
17 17 17 18 18 20 21 22 22 24 25 27 26 18 7 8 6 6 7 7 8 7 6 2 8 11 14 11 11 4 13 13 10 12 14 19 16 4 15 14 15 17 23 15 18 19 20
17 17 17 18 19 21 22 23 25 24 26 29 28 16 8 5 6 6 7 11 10 6 8 10 10 17 15 6 8 7 13 13 9 7 12 12 17 2 6 12 16 26 21 17 20 17 19
18 18 19 20 20 19 21 22 24 26 26 29 31 7 8 4 5 6 10 9 2 9 8 11 15 11 9 6 9 13 11 13 5 10 9 13 13 21 23 7 8 15 21 22 21 26 18
17 19 19 19 20 20 20 21 23 25 27 29 9 6 3 4 3 7 9 9 7 3 8 10 14 6 13 16 13 13 13 7 8 9 9 13 22 19 19 10 18 20 14 13 15 21 19
15 17 18 18 19 20 21 22 22 24 27 32 6 6 7 5 5 8 4 7 7 6 8 8 12 16 15 14 14 17 16 15 6 16 14 18 10 19 19 14 15 8 19 12 14 8 10
16 16 18 19 19 19 20 21 21 22 24 13 6 5 5 4 5 3 6 7 3 7 4 7 8 11 10 12 15 17 19 11 16 12 18 16 9 15 21 23 6 13 16 9 13 14 18
16 16 18 18 18 19 19 19 19 20 17 11 7 6 5 3 3 6 8 10 3 8 8 6 7 12 13 14 10 11 17 14 15 14 6 9 6 12 15 4 12 11 19 8 7 12 18
17 17 18 18 17 18 18 19 19 19 19 11 6 5 1 1 1 6 10 9 7 2 9 7 9 15 11 13 14 10 17 10 13 16 17 11 14 15 16 21 7 8 17 14 12 7 21
16 17 18 17 16 15 17 18 20 18 22 10 5 3 4 5 6 11 12 11 11 10 2 9 7 5 10 12 20 19 13 22 19 18 12 5 15 18 22 23 20 19 17 16 17 20 21
16 17 17 16 15 16 15 16 17 16 23 4 6 6 7 11 8 9 6 7 8 9 11 15 16 13 15 13 16 25 23 20 11 13 8 11 15 17 20 21 21 22 20 18 20 21 25
15 15 15 14 13 15 17 15 15 14 11 3 3 2 4 9 7 8 6 7 11 15 11 9 8 15 18 18 16 19 22 22 17 12 16 9 12 14 14 10 16 16 16 16 15 18 18
14 14 14 14 15 15 15 14 12 12 8 2 4 0 3 8 10 9 10 12 12 12 16 21 19 17 16 17 22 22 24 20 16 9 8 5 7 4 11 11 8 12 5 8 13 16 16
14 13 15 15 15 14 14 13 12 10 9 3 4 4 1 8 13 16 8 7 12 15 16 18 17 12 13 16 13 14 4 1 10 14 13 11 1 5 5 8 15 18 6 5 8 17 17
12 14 14 14 15 15 14 13 12 12 10 9 4 3 4 4 3 17 17 16 11 12 16 8 14 12 11 8 7 10 6 7 5 5 10 6 2 3 9 6 5 3 8 8 9 14 10
12 12 13 14 15 15 15 14 12 11 11 8 7 7 4 7 11 6 7 10 8 8 8 13 8 8 3 3 4 4 7 7 5 8 7 8 4 6 10 8 5 6 15 8 6 5 17
12 13 13 14 14 14 15 14 14 12 12 9 8 6 7 8 16 23 20 14 11 8 8 9 9 2 8 4 3 4 4 5 6 11 8 5 5 5 5 6 3 15 10 3 12 18 18
11 12 13 14 15 14 14 14 13 12 12 11 10 6 4 6 13 22 25 25 23 20 11 3 7 8 5 3 4 6 4 4 11 5 7 4 3 4 4 5 14 12 10 8 14 13 15
Wind_Direction
6 4 2 1 359 357 353 350 349 349 347 343 340 337 335 333 330 326 323 320 317 313 312 310 308 306 289 217 53 121 211 229 261 282 271 268 260 251 247 246 247 240 248 249 250 250 254
6 5 3 1 358 355 351 347 345 344 344 343 340 338 336 332 330 324 321 317 314 310 303 297 301 305 256 249 346 335 317 291 273 310 319 279 272 270 274 264 251 257 252 251 253 253 248
7 6 4 1 359 357 353 349 345 344 343 341 338 337 334 332 329 325 321 318 311 300 286 272 271 268 268 58 294 306 273 324 313 303 291 308 305 269 274 255 251 264 266 268 261 244 248
7 6 4 1 359 358 355 352 348 346 344 342 339 336 334 330 326 321 319 316 312 296 270 237 238 263 289 89 334 332 319 316 271 248 270 281 285 279 267 266 275 281 261 250 244 247 248
4 3 0 359 358 357 355 353 349 346 343 342 338 336 334 330 326 321 317 311 311 235 203 215 232 241 162 139 337 338 322 323 315 297 274 268 277 276 264 247 253 245 251 245 253 241 239
1 360 358 357 357 356 352 350 348 346 344 342 338 335 331 329 325 320 314 297 229 186 204 213 257 246 205 356 342 310 298 315 305 304 287 239 259 251 241 236 249 253 243 246 255 258 233
359 358 358 358 357 356 352 349 347 346 345 344 339 334 331 327 321 314 315 221 215 196 229 299 320 291 293 338 311 310 321 293 276 273 273 283 268 254 280 282 272 275 274 278 275 264 243
359 359 358 357 356 355 352 351 347 343 341 340 337 335 329 324 316 310 293 359 42 336 298 281 245 263 271 310 294 324 284 306 302 297 300 275 250 256 259 276 291 284 279 271 271 269 274
1 0 359 357 353 351 352 350 347 343 339 336 333 333 325 317 314 286 306 33 338 328 263 113 219 262 280 251 294 297 296 298 289 297 292 291 292 299 288 264 260 268 268 275 280 286 267
0 358 357 353 351 348 349 348 345 342 337 333 331 331 323 314 289 343 188 355 308 347 269 130 198 174 242 285 269 307 284 286 286 292 296 292 290 282 282 272 268 271 273 277 270 264 260
357 354 351 346 350 351 347 344 345 341 333 332 334 333 328 270 322 283 10 328 336 233 262 115 144 51 255 265 303 149 215 272 282 294 286 291 290 280 266 280 284 284 287 282 275 264 256
354 352 349 343 342 340 338 338 338 336 332 330 334 334 330 191 233 15 322 344 242 233 43 169 265 266 295 302 277 264 275 268 261 258 273 277 344 285 283 306 288 293 284 275 267 259 247
351 348 342 337 335 334 336 334 335 334 334 329 332 329 275 307 353 342 316 247 240 293 123 57 331 314 310 292 307 302 310 297 302 310 310 314 284 260 271 310 284 267 264 261 248 239 251
347 341 341 342 342 339 333 333 333 333 332 327 325 319 191 292 315 318 275 252 270 349 325 355 318 301 269 355 312 282 292 296 328 311 310 307 309 34 305 288 312 292 262 258 257 258 250
343 341 341 340 338 337 333 331 331 331 333 329 313 207 229 106 313 298 271 268 294 351 358 327 309 305 327 305 315 304 303 306 326 320 305 304 295 312 300 300 296 310 245 252 262 263 273
342 343 342 337 334 335 334 333 331 333 335 328 309 264 126 355 308 278 260 286 295 12 311 309 300 313 321 321 331 316 316 333 308 327 318 308 295 297 285 259 258 234 262 257 248 256 274
331 342 338 334 335 335 336 334 332 335 335 320 255 266 78 333 276 242 275 300 331 349 317 311 323 306 307 321 308 308 305 316 350 332 327 314 289 288 294 257 276 240 232 219 273 279 265
336 336 332 337 336 335 334 334 333 336 338 327 302 272 70 328 262 279 264 6 334 279 262 270 291 301 294 321 309 298 299 323 329 328 309 309 292 287 286 289 215 239 257 234 244 246 254
330 333 336 334 333 336 336 336 336 336 350 325 315 291 119 290 307 329 314 300 242 294 309 303 280 299 301 292 296 288 305 313 311 311 329 344 294 308 289 51 13 339 310 240 294 289 265
328 332 332 333 338 339 341 344 339 337 335 317 296 317 89 128 107 310 330 308 292 162 286 284 282 283 301 295 281 280 292 317 319 309 299 277 270 260 276 294 175 219 251 287 236 252 268
326 328 330 334 339 351 353 347 346 338 327 308 322 18 11 315 330 324 296 295 288 295 288 297 289 267 286 305 312 287 306 313 308 296 282 237 264 274 279 285 292 290 279 257 255 264 272
325 328 331 336 350 351 349 345 348 352 331 276 337 336 352 288 289 281 287 285 311 302 322 302 287 310 308 279 273 286 295 294 300 301 294 295 274 274 283 290 287 281 271 253 257 266 270
322 326 333 341 348 351 348 351 354 358 345 342 13 319 325 293 277 282 284 319 322 330 299 283 298 281 290 296 297 279 277 284 273 251 285 287 280 284 266 317 320 292 266 270 275 261 276
325 332 340 340 346 347 349 352 356 359 13 313 306 349 288 291 328 306 298 300 293 293 282 296 298 283 302 311 300 285 260 247 235 206 197 227 275 259 275 282 245 292 61 345 314 297 285
329 337 339 340 338 338 341 341 339 344 346 278 271 290 254 288 324 290 269 265 301 281 284 283 283 305 324 301 291 289 303 261 242 233 207 214 185 278 270 245 274 290 40 17 345 294 293
331 333 335 335 333 334 335 340 338 336 343 295 292 246 280 296 241 344 314 304 297 303 287 283 343 311 293 290 283 282 309 350 318 298 191 210 156 220 313 296 291 101 45 346 329 268 20
327 329 333 333 332 331 333 331 329 327 326 302 268 227 266 273 269 279 298 318 306 287 277 294 340 304 235 294 281 292 315 354 305 332 299 308 217 230 274 276 244 42 349 336 234 7 326
322 324 331 330 329 328 326 327 324 322 315 304 289 272 258 273 280 278 278 279 262 243 258 328 304 220 273 248 294 349 311 317 307 306 290 282 313 304 305 289 339 352 347 227 324 305 303
317 320 323 327 323 323 320 318 313 310 309 310 286 283 252 251 275 298 281 271 251 249 262 227 290 316 291 317 4 321 298 284 292 275 317 316 327 272 243 290 314 311 298 298 285 279 294